User: anonymous   Login
Location: Unspecified
(0.0000°N, 0.0000°E)
Time: 09:17:25
(UTC+00:00)
Language:

Interbol-2 - Orbit

View from above orbital plane
View from above orbital plane
View from above satellite
View from above satellite

Ground track
Ground track

The orbit data is extracted from the following two-line orbital elements,

1 24292U 96050B   17268.61483432 +.00000010 +00000-0 +00000-0 0  9995
2 24292 063.5301 176.4345 5224150 237.4084 297.5044 04.14704441319065
Epoch (UTC): 25 September 2017 14:45:21
Eccentricity: 0.5224150
inclination: 63.5301°
perigee height: 1437 km
apogee height: 18535 km
right ascension of ascending node: 176.4345°
argument of perigee: 237.4084°
revolutions per day: 4.14704441
mean anomaly at epoch: 297.5044°
orbit number at epoch: 31906

The dashed part of the orbit path shows where the satellite is in the earth's shadow,  

DLR